www.pogodaiklimat.ru

Погода и климат >> Архив погоды >> Хорватия >> Задар


ПОГОДА в Задаре

  • Прогноз погоды в Задаре
  • Монитор погоды в Задаре

АРХИВ ПОГОДЫ в Задаре

Время (UTC), дата Ветер
(напр.,м/с)
 
Видим.   Явления Облачность Т
(С)
Тd
(С)
f
(%)
Тe
(С)
Тes
(С)
Комфортность P
(гПа)
Po
(гПа)
Тmin
(С)
Tmax
(С)
R
(мм)
R24
(мм)
S
(см)
00 11.08 С 1 н/о н/о +24.1 +22.1 89 +31 +31 очень
душно
1014.9 1014.2
03 11.08 ЮВ 1 20 км ясно +24.0 +22.0 89 +31 +31 очень
душно
1014.3 1013.6
04 11.08 штиль 0 20 км ясно +23.8 +22.3 91 +31 +31 очень
душно
1014.3 1013.6
05 11.08 штиль 0 20 км ясно +24.6 +21.9 85 +32 +33 очень
душно
1014.3 1013.6
06 11.08 ЮВ 1 20 км ясно +26.3 +22.9 82 +35 +38 очень
душно
1014.8 1014.1 +23.6
07 11.08 ЮЗ 1 20 км ясно +27.5 +23.1 77 +37 +44 очень
душно
1014.7 1014.0
08 11.08 З 1 20 км ясно +27.8 +23.9 79 +38 +50 очень
душно
1015.0 1014.3
09 11.08 СЗ 2 20 км ясно +30.0 +21.2 59 +38 +51 опасность
солнечного
удара
1014.9 1014.2
10 11.08 СЗ 2 20 км ясно +31.2 +22.5 60 +41 +57 опасность
перегрева
1014.8 1014.1
11 11.08 СЗ 3 20 км ясно +31.6 +22.8 60 +42 +56 опасность
перегрева
1014.3 1013.6
12 11.08 СЗ 3 20 км ясно +32.8 +23.3 57 +43 +56 опасность
перегрева
1013.9 1013.2
13 11.08 СЗ 2 20 км ясно +32.2 +25.4 67 +46 +60 опасность
перегрева
1013.8 1013.1
14 11.08 СЗ 2 н/о н/о +31.2 +23.4 63 +42 +42 опасность
перегрева
1013.8 1013.1
15 11.08 СЗ 2 н/о н/о +31.4 +22.5 59 +41 +41 опасность
перегрева
1013.5 1012.8
16 11.08 СЗ 2 н/о н/о +31.1 +22.2 59 +40 +40 очень
душно
1013.1 1012.4
17 11.08 СЗ 2 н/о н/о +29.5 +23.8 71 +40 +40 очень
душно
1013.0 1012.3
18 11.08 СЗ 2 20 км ясно +29.6 +26.1 82 +45 +45 опасность
перегрева
1012.5 1011.8 +32.8
19 11.08 С 1 20 км ясно +28.0 +26.3 91 +43 +43 опасность
перегрева
1012.9 1012.2
20 11.08 СЗ 1 20 км ясно +27.1 +25.6 92 +40 +40 очень
душно
1012.9 1012.2
21 11.08 штиль 0 н/о н/о +26.0 +23.6 87 +35 +35 очень
душно
1013.2 1012.5
00 12.08 н/о н/о +24.8 +22.8 89 1012.9 1012.2
03 12.08 В 1 20 км ясно +24.1 +22.5 91 +32 +32 очень
душно
1011.9 1011.2
04 12.08 штиль 0 20 км ясно +24.1 +22.5 91 +32 +32 очень
душно
1011.9 1011.2
05 12.08 штиль 0 20 км ясно +24.1 +22.6 91 +32 +32 очень
душно
1011.7 1011.0
06 12.08 штиль 0 20 км ясно +25.8 +22.4 82 +34 +38 очень
душно
1011.8 1011.1 +24.0
07 12.08 штиль 0 20 км ясно +27.4 +22.2 73 +36 +44 очень
душно
1012.3 1011.6
08 12.08 ЮЗ 1 20 км ясно +28.2 +24.0 78 +39 +51 опасность
солнечного
удара
1012.3 1011.6
09 12.08 ЮЗ 1 20 км ясно +31.0 +19.1 49 +36 +52 опасность
солнечного
удара
1012.0 1011.3
10 12.08 З 1 20 км ясно +31.4 +21.2 55 +39 +58 опасность
солнечного
удара
1012.1 1011.4
11 12.08 СЗ 2 20 км ясно +34.0 +17.5 38 +38 +54 опасность
солнечного
удара
1012.0 1011.3
12 12.08 СЗ 3 20 км ясно +34.0 +18.1 39 +38 +51 опасность
солнечного
удара
1011.7 1011.0
13 12.08 СЗ 2 20 км ясно +34.4 +20.3 44 +41 +54 опасность
перегрева
1010.8 1010.1
14 12.08 СЗ 2 н/о н/о +33.8 +21.7 49 +42 +42 опасность
перегрева
1011.0 1010.3
15 12.08 СЗ 2 н/о н/о +32.3 +23.1 58 +42 +42 опасность
перегрева
1010.7 1010.0
16 12.08 З 2 н/о н/о +31.1 +24.1 66 +43 +43 опасность
перегрева
1010.1 1009.4
17 12.08 СЗ 2 н/о н/о +29.9 +24.6 73 +42 +42 опасность
перегрева
1009.8 1009.1
18 12.08 С 1 20 км 1/0
[Ci sp]
+28.7 +25.1 81 +42 +42 опасность
перегрева
1009.1 1008.4 +35.0
19 12.08 С 1 20 км 1/0
[Ci sp]
+27.2 +23.0 78 +36 +36 очень
душно
1009.8 1009.1
20 12.08 СЗ 1 20 км ясно +26.8 +21.7 74 +34 +34 очень
душно
1010.5 1009.8
21 12.08 С 1 н/о н/о +26.2 +23.2 84 +35 +35 очень
душно
1010.7 1010.0
00 13.08 штиль 0 н/о н/о +26.0 +23.9 88 +36 +36 очень
душно
1010.1 1009.4
03 13.08 С 1 20 км ясно +25.0 +23.0 89 +33 +33 очень
душно
1009.0 1008.3
04 13.08 СВ 1 20 км 3/3 600 м
[Cu Sc]
+24.8 +23.1 90 +33 +33 очень
душно
1009.0 1008.3
05 13.08 ЮВ 2 20 км 4/3 600 м
[Cu Sc Ac und]
+25.6 +23.2 87 +34 +35 очень
душно
1008.9 1008.2
06 13.08 ЮВ 1 20 км 5/4 600 м
[Cu Sc Ac trans]
+26.4 +24.0 87 +37 +38 очень
душно
1010.1 1009.4 +24.7
07 13.08 ЮЗ 1 20 км 6/4 600 м
[Cu Sc Ac und]
+27.8 +23.9 79 +38 +41 очень
душно
1010.1 1009.4
08 13.08 З 3 20 км 5/4 600 м
[Cu Sc Ac trans]
+28.9 +24.2 76 +40 +45 очень
душно
1010.2 1009.5
09 13.08 СЗ 1 20 км 5/4 600 м
[Cu Sc Ac trans]
+29.1 +24.8 78 +42 +50 опасность
перегрева
1010.3 1009.6
10 13.08 З 2 20 км в посл. час дождь 6/3 600 м
[Cu Sc Ac trans Ci sp]
+28.4 +25.1 82 +41 +50 опасность
перегрева
1010.3 1009.6
11 13.08 СЗ 2 20 км {дождь} 5/3 600 м
[Cu Sc Ac trans Ci sp]
+30.5 +24.3 70 +43 +53 опасность
перегрева
1010.0 1009.3
12 13.08 З 3 20 км {дождь} 4/3 600 м
[Cu Sc Ac trans Ci fib]
+29.3 +24.5 75 +41 +50 опасность
перегрева
1009.6 1008.9 0.0
13 13.08 СЗ 2 20 км 8/4 600 м
[Cu Sc Ac und Ci fib]
+30.2 +24.6 72 +43 +48 опасность
перегрева
1009.1 1008.4
14 13.08 СЗ 4 н/о н/о +31.0 +23.5 64 +42 +42 опасность
перегрева
1008.8 1008.1
15 13.08 СЗ 3 н/о н/о +30.0 +23.3 67 +40 +40 очень
душно
1008.5 1007.8
16 13.08 З 2 н/о н/о +28.3 +24.2 78 +39 +39 очень
душно
1008.5 1007.8
17 13.08 З 1 н/о н/о +28.0 +24.3 80 +39 +39 очень
душно
1007.8 1007.1
18 13.08 С 1 20 км 9/8 600 м
[Cb calv Ac cuf]
+28.1 +24.9 83 +40 +40 очень
душно
1008.1 1007.4 +31.0 0.0
19 13.08 С 1 20 км 8/5 600 м
[Cu Sc Ac und]
+28.0 +24.0 79 +39 +39 очень
душно
1007.5 1006.8
20 13.08 ЮВ 3 20 км зарница {гроза} 8/5 600 м
[Cb calv Ac trans]
+28.0 +21.3 67 +35 +35 очень
душно
1007.3 1006.6
21 13.08 ЮВ 3 н/о н/о +26.8 +20.9 70 +34 +34 очень
душно
1007.6 1006.9
00 14.08 СВ 2 н/о н/о +26.4 +16.1 53 +30 +30 душно 1007.9 1007.2
03 14.08 В 3 20 км зарница {гроза, дождь} 9/6 600 м
[Cb calv Ac As]
+24.0 +19.1 74 +29 +29 душно 1007.4 1006.7
04 14.08 В 5 20 км {гроза, дождь} 8/4 600 м
[Cu Sc Ac As]
+23.3 +17.5 70 +29 +29 душно 1007.9 1007.2
05 14.08 СЗ 2 20 км 8/5 600 м
[Cu Sc Ac As]
+23.0 +19.1 79 +29 +29 очень
душно
1008.5 1007.8
06 14.08 С 4 20 км {гроза, дождь} 6/3 600 м
[Cu Sc Ac und Ci sp]
+24.1 +17.6 67 +28 +29 душно 1009.1 1008.4 +22.7 0.4
07 14.08 С 2 20 км 6/3 600 м
[Cu Sc Ac trans Ci sp]
+25.2 +16.6 59 +29 +32 душно 1010.1 1009.4
08 14.08 С 4 20 км 6/3 600 м
[Cu Sc Ac trans Ci sp]
+25.0 +15.0 54 +28 +31 жарко 1010.6 1009.9
09 14.08 В 4 20 км 4/3 600 м
[Cu Sc Ci sp]
+27.2 +13.8 44 +29 +35 жарко 1010.1 1009.4
10 14.08 С 1 20 км 3/3 600 м
[Cu med, cong Ci sp]
+29.6 +13.8 38 +31 +44 жарко 1010.9 1010.2
11 14.08 С 5 20 км 3/3 600 м
[Cu med, cong Ci sp]
+30.0 +14.5 39 +32 +38 жарко 1011.1 1010.4
12 14.08 С 4 20 км 3/3 600 м
[Cu med, cong Ci sp]
+29.9 +15.3 41 +32 +40 жарко 1011.2 1010.5
13 14.08 С 3 20 км 3/3 600 м
[Cu Sc]
+30.0 +14.3 38 +32 +39 жарко 1012.0 1011.3
14 14.08 С 4 н/о н/о +28.7 +13.8 40 +31 +31 жарко 1012.2 1011.5
15 14.08 С 4 н/о н/о +28.3 +13.1 39 +30 +30 жарко 1012.1 1011.4
16 14.08 С 4 н/о н/о +27.3 +13.3 42 +29 +29 жарко 1012.1 1011.4
17 14.08 С 3 н/о н/о +26.8 +12.1 40 +28 +28 жарко 1012.0 1011.3
18 14.08 С 2 20 км 6/3 600 м
[Sc Ac trans Cs]
+25.0 +11.9 44 +27 +27 жарко 1012.3 1011.6 +30.1
19 14.08 В 1 20 км 5/1 1000 м
[Sc diur, vesp Ac lent Cs]
+23.8 +12.7 50 +26 +26 жарко 1013.0 1012.3
20 14.08 В 2 20 км 4/0
[Ac lent Cs]
+23.2 +12.2 50 +26 +26 жарко 1013.8 1013.1
21 14.08 С 1 н/о н/о +21.9 +11.1 50 +24 +24 комфорт 1014.2 1013.5
00 15.08 В 2 н/о н/о +21.7 +11.5 52 +24 +24 комфорт 1014.6 1013.9
03 15.08 С 1 20 км ясно +19.6 +14.2 71 +22 +22 комфорт 1013.9 1013.2
04 15.08 В 2 20 км ясно +19.6 +13.9 70 +22 +22 комфорт 1014.5 1013.8
05 15.08 штиль 0 20 км ясно +19.6 +13.3 67 +21 +22 комфорт 1014.7 1014.0
06 15.08 ЮВ 1 20 км ясно +22.9 +14.3 58 +26 +29 жарко 1015.0 1014.3 +19.4
07 15.08 В 1 20 км 1/1 600 м
[Cu hum]
+25.0 +13.1 48 +27 +33 жарко 1015.0 1014.3
08 15.08 З 2 20 км 1/1 600 м
[Cu hum]
+24.4 +13.3 50 +27 +35 жарко 1014.7 1014.0
09 15.08 СЗ 2 20 км 3/1 600 м
[Cu hum Ci]
+26.0 +13.5 46 +28 +39 жарко 1014.8 1014.1
10 15.08 З 3 20 км 3/1 600 м
[Cu hum Ci fib]
+25.3 +14.6 52 +28 +39 жарко 1014.7 1014.0
11 15.08 З 3 20 км 3/1 600 м
[Cu hum Ci fib]
+26.2 +14.6 49 +29 +40 жарко 1014.2 1013.5
12 15.08 СЗ 3 20 км 3/1 600 м
[Cu hum Ci sp]
+27.2 +17.6 56 +31 +42 душно 1014.0 1013.3
13 15.08 З 3 20 км 3/1 600 м
[Cu hum Ac und]
+27.2 +17.9 57 +32 +40 очень
душно
1013.6 1012.9
14 15.08 СЗ 4 н/о н/о +27.7 +14.4 44 +30 +30 жарко 1013.7 1013.0
15 15.08 СЗ 3 н/о н/о +27.5 +14.2 44 +30 +30 жарко 1013.4 1012.7
16 15.08 СЗ 4 н/о н/о +27.2 +14.6 46 +30 +30 душно 1013.2 1012.5
17 15.08 СЗ 3 н/о н/о +26.1 +14.6 49 +29 +29 жарко 1013.2 1012.5
18 15.08 СЗ 3 20 км 1/0
[Ac lent]
+25.4 +18.0 64 +30 +30 душно 1012.9 1012.2 +28.0
19 15.08 С 3 20 км 1/0
[Ac lent]
+24.8 +19.5 72 +30 +30 душно 1013.7 1013.0
20 15.08 В 2 20 км ясно +23.5 +20.4 83 +29 +29 душно 1013.8 1013.1
21 15.08 В 1 н/о н/о +22.7 +11.2 48 +25 +25 комфорт 1014.1 1013.4
00 16.08 В 1 н/о н/о +20.6 +9.3 48 +23 +23 комфорт 1014.2 1013.5
03 16.08 В 1 н/о н/о +20.2 +9.5 50 +23 +23 комфорт 1014.2 1013.5
04 16.08 ЮВ 1 20 км 6/4 600 м
[Cu Sc Ac trans]
+20.1 +11.3 57 +23 +23 комфорт 1014.3 1013.6
05 16.08 СВ 2 20 км 4/3 600 м
[Cu Sc Ac trans]
+20.6 +13.4 63 +24 +24 комфорт 1014.1 1013.4
06 16.08 В 2 20 км 4/3 600 м
[Cu Sc Ac trans]
+21.2 +11.6 54 +23 +25 комфорт 1014.1 1013.4 +19.9
07 16.08 ЮЗ 2 20 км 8/4 600 м
[Cu Sc Ac und]
+24.0 +14.5 55 +27 +28 жарко 1014.7 1014.0
08 16.08 З 1 20 км 5/3 600 м
[Cu Sc Ac trans]
+24.9 +14.5 52 +27 +34 жарко 1015.1 1014.4
09 16.08 З 2 20 км 3/3 1000 м
[Cu Sc Ci]
+25.9 +12.8 44 +28 +37 жарко 1015.0 1014.3
10 16.08 З 2 20 км 3/3 1000 м
[Cu Sc Ci sp]
+27.6 +13.3 41 +29 +40 жарко 1015.1 1014.4
11 16.08 З 4 20 км 3/1 600 м
[Cu hum Ci sp]
+26.5 +12.4 42 +28 +37 жарко 1015.0 1014.3
12 16.08 З 3 20 км 3/1 600 м
[Cu hum Ci sp]
+27.9 +14.4 44 +30 +41 жарко 1014.7 1014.0
13 16.08 З 2 20 км 3/3 600 м
[Cu med, cong]
+29.8 +11.5 32 +30 +39 жарко 1014.4 1013.7
14 16.08 З 3 н/о н/о +27.3 +15.7 49 +30 +30 душно 1014.6 1013.9
15 16.08 СЗ 3 н/о н/о +29.7 +10.3 30 +30 +30 жарко 1014.4 1013.7
16 16.08 СЗ 4 н/о н/о +27.4 +16.7 52 +31 +31 душно 1014.4 1013.7
17 16.08 СЗ 3 н/о н/о +26.2 +16.5 55 +30 +30 душно 1014.6 1013.9
18 16.08 СЗ 3 20 км 3/0
[Ci sp]
+25.2 +18.8 68 +30 +30 душно 1014.5 1013.8 +30.0
19 16.08 СЗ 2 20 км 1/0
[Ci sp]
+24.2 +15.4 58 +27 +27 жарко 1015.0 1014.3
20 16.08 СЗ 1 20 км 1/0
[Ci sp]
+23.5 +15.3 60 +26 +26 жарко 1015.4 1014.7
21 16.08 штиль 0 н/о н/о +22.0 +13.4 58 +25 +25 комфорт 1016.1 1015.4
00 17.08 В 1 н/о н/о +21.8 +11.9 53 +24 +24 комфорт 1016.2 1015.5
03 17.08 В 2 20 км 1/0
[Ci fib]
+20.4 +12.4 60 +23 +23 комфорт 1015.6 1014.9
04 17.08 В 2 20 км 1/0
[Ci fib]
+19.8 +11.9 60 +22 +22 комфорт 1015.8 1015.1
05 17.08 В 1 20 км 1/0
[Ci sp]
+20.4 +12.0 59 +23 +24 комфорт 1015.9 1015.2
06 17.08 ЮВ 1 20 км 3/0
[Ci sp]
+22.4 +14.0 59 +26 +28 жарко 1016.3 1015.6 +19.8
07 17.08 ЮЗ 1 20 км 1/0
[Ci fib]
+23.7 +13.5 53 +26 +32 жарко 1016.7 1016.0
08 17.08 З 1 20 км 3/0
[Ci]
+24.8 +15.4 56 +28 +38 жарко 1016.9 1016.2
09 17.08 СЗ 2 20 км 4/0
[Cs]
+26.0 +15.1 51 +29 +41 душно 1016.9 1016.2
10 17.08 СЗ 1 20 км 4/0
[Cs]
+27.1 +15.1 48 +30 +46 душно 1016.4 1015.7
11 17.08 СЗ 2 20 км 4/0
[Cs]
+27.4 +17.5 55 +32 +46 очень
душно
1016.5 1015.8
12 17.08 СЗ 2 20 км 5/0
[Cs]
+27.2 +17.9 57 +32 +45 очень
душно
1016.4 1015.7
13 17.08 СЗ 3 20 км 3/0
[Ci sp]
+28.5 +17.8 52 +33 +43 очень
душно
1016.2 1015.5
14 17.08 З 2 н/о н/о +26.9 +17.2 55 +31 +31 душно 1016.6 1015.9
15 17.08 З 1 н/о н/о +27.0 +16.7 53 +31 +31 душно 1016.4 1015.7
16 17.08 СЗ 1 н/о н/о +26.5 1015.8 1015.1
17 17.08 З 2 н/о н/о +25.7 +17.2 59 +30 +30 душно 1015.9 1015.2
18 17.08 СЗ 2 20 км 4/0
[Ci sp]
+25.0 +19.1 70 +30 +30 душно 1015.1 1014.4 +29.1
19 17.08 СЗ 1 20 км 5/0
[Cs]
+23.8 +20.9 84 +30 +30 очень
душно
1015.4 1014.7
20 17.08 СЗ 1 20 км 3/0
[Cs]
+23.0 +19.3 80 +29 +29 очень
душно
1015.4 1014.7
21 17.08 штиль 0 н/о н/о +21.9 1015.8 1015.1

 

Местоположение метеостанции Задар (Хорватия): широта 44.13 долгота 15.22 высота над уровнем моря 7 м.

В архиве по умолчанию представлена погода в Задаре за последнюю неделю. Архивные данные за месяц целиком и за предыдущие месяцы, начиная с января 2011 года, Вы можете получить, выбрав интересующий диапазон дат из раскрывающегося списка и нажав кнопку "Ввод!".


*Определитесь, кто Вы:
робот инопланетянин человек

Внимание! Время в таблицах - всемирное. Для получения местного времени необходимо прибавить поправку, которая равна 1 ч.

Смотрите также архив погоды в соседних городах и на ближайших метеорологических станциях:

Погода в Задар аэропорту (Хорватия) (11 км)
Погода в Госпиче (Хорватия) (48 км)
Погода в Шибенике (Хорватия) (72 км)
Погода в Мали-Лошине (Хорватия) (74 км)
Погода в Рабе (Хорватия) (78 км)
Погода в Завизани (Хорватия) (79 км)
Погода в Бихаче (Босния и Герцеговина) (93 км)
Погода в Сене (Хорватия) (100 км)
Погода в Сплит аэропорту (Хорватия) (109 км)
Погода в Сплите (Хорватия) (118 км)

Пояснения к столбцам:

Ветер - указаны скорость ветра в м/с - средняя за 10 мин, порывы в срок и между сроками (в фигурных скобках) и направление, откуда дует ветер: С - северный, СВ - северо-восточный, В - восточный, ЮВ - юго-восточный, Ю - южный, ЮЗ - юго-западный, З - западный, СЗ - северо-западный.
Видимость - горизонтальная дальность видимости в метрах или километрах. При видимости от 1 до 10 км при отсутствии осадков обычно наблюдается дымка, при ухудшении видимости до 1 км и менее - туман. В сухую погоду видимость может ухудшаться дымом, пылью или мглою.
Явления - указаны атмосферные явления, наблюдавшиеся в срок или в последний час перед сроком; фигурными скобками обозначены явления, наблюдавшиеся между сроками (за 1-3 часа до срока); квадратными скобками обозначены град или гололедные отложения с указанием их диаметра в мм.
Облачность - указаны через наклонную черту общая и нижняя облачность в баллах и высота нижней границы облаков в метрах; квадратными скобками обозначены формы облаков: Ci - перистые, Cs - перисто-слоистые, Cc - перисто-кучевые, Ac - высококучевые, As - высокослоистые, Sc - слоисто-кучевые, Ns - слоисто-дождевые, Cu - кучевые, Cb - кучево-дождевые. Подробнее классификацию облаков см. в Атласе облаков (PDF).
T - Температура воздуха - температура, измеренная на высоте 2 м над землей.
Td - Температура точки росы - температура, при понижении до которой содержащийся в воздухе водяной пар достигнет насыщения.
f - Относительная влажность воздуха - влажноcть воздуха, измеренная на высоте 2 м над землей.
Te - Эффективная температура - температура, которую ощущает одетый по сезону человек в тени. Характеристика душности погоды. При расчете учитывается влияние влажности воздуха и скорости ветра на теплоощущения человека.
Tes - Эффективная температура на солнце - температура, которую ощущает человек, с поправкой на солнечный нагрев. Характеристика знойности погоды. Зависит от высоты солнца над горизонтом, облачности и скорости ветра. Ночью, в пасмурную погоду, а также при ветре 12 м/с и более поправка равна нулю.
P - Атмосферное давление - приведенное к уровню моря атмосферное давление.
Po - Атмосферное давление - измеренное на уровне метеостанции атмосферное давление.
Tmin - Минимальная температура - минимум температуры воздуха на высоте 2 м над землей.
Tmax - Максимальная температура - максимум температуры воздуха на высоте 2 м над землей.
R - Количество осадков - Количество выпавших осадков за период времени, мм. При наведении курсора мыши на число - период времени, за который выпало указанное количество осадков.
R24 - Количество осадков - Количество выпавших осадков за 24 часа, мм.
S - Снежный покров - Высота снежного покрова, см. При наведении курсора мыши на число - состояние снежного покрова и степень покрытия местности в баллах.